Station 41002 (LLNR 830) - SOUTH HATTERAS - 225 NM South of Cape Hatteras Image indicating link to RSS feed of recent meteorological observations for station 41002


Conditions at 41002 as of
(2:30 pm EDT)
1830 GMT on 05/30/2023:
     

Click on the graph icon in the table below to see a time series plot of the last five days of that observation.

5-day plot - Wind Direction Wind Direction (WDIR):NNW ( 330 deg true )
5-day plot - Wind Speed Wind Speed (WSPD):4.0 m/s
5-day plot - Wind Gust Wind Gust (GST):6.0 m/s
5-day plot - Atmospheric Pressure Atmospheric Pressure (PRES):1011.6 mb
5-day plot - Air Temperature Air Temperature (ATMP): 24.2 °C
5-day plot - Water Temperature Water Temperature (WTMP): 26.3 °C
5-day plot - Dew Point Dew Point (DEWP): 20.1 °C
5-day plot - Wind Speed at 10 Meters Wind Speed at 10 meters (WSPD10M): 4 m/s
5-day plot - Wind Speed at 20 Meters Wind Speed at 20 meters (WSPD20M): 5 m/s
5-day plot -  Wind Speed, Wind Gust and Atmospheric Pressure Combined plot of Wind Speed, Gust, and Air Pressure
Supplemental Measurements
Highest 1-minute Wind Speed
Time (EDT)5-day plot - 1-Minute Wind Speed WSPD 5-day plot - 1-Minute Wind Direction WDIR
2:24 pm 5 m/s-
Previous observations
TIME
(EDT)
5-day plot - Wind Direction
WDIR
 
5-day plot - Wind Speed
WSPD
m/s
5-day plot - Wind Gust
GST
m/s
5-day plot - Wave Height
WVHT
m
5-day plot - Dominant Wave Period
DPD
sec
5-day plot - Average Wave Period
APD
sec
5-day plot - Mean Wave Direction
MWD
 
5-day plot - Atmospheric Pressure
PRES
mb
5-day plot - Pressure Tendency
PTDY
mb
5-day plot - Air Temperature
ATMP
°C
5-day plot - Water Temperature
WTMP
°C
5-day plot - Dew Point
DEWP
°C
5-day plot - Salinity
SAL
psu
5-day plot - Visibility
VIS
km
5-day plot - Tide (above MLLW)
TIDE
m
2023-05-30 02:20 pmNNW 4.0 5.0 0.9 85.2ESE1011.7- 24.2 26.3 20.1---
2023-05-30 02:10 pmNNW 4.0 6.0 0.9-5.2ESE1011.7- 24.2 26.3 20.0---
2023-05-30 02:00 pm NW 4.0 5.0----1011.6 -0.7 24.2 26.3 19.9---
2023-05-30 01:50 pmNNW 4.0 6.0 0.9 85.2 E1011.8- 24.3 26.3 20.1---
2023-05-30 01:40 pmNNW 4.0 5.0----1011.9- 24.3 26.3 20.0---
2023-05-30 01:30 pmNNW 4.0 5.0----1011.9- 24.3 26.3 20.0---
2023-05-30 01:20 pmNNW 4.0 6.0 0.9 75.2 E1012.1- 24.3 26.3 19.8---
2023-05-30 01:10 pmNNW 4.0 6.0 0.9-5.2 E1012.0- 24.3 26.3 19.7---
2023-05-30 01:00 pmNNW 4.0 5.0----1011.9 -0.5 24.2 26.2 19.5---
2023-05-30 12:50 pm NW 4.0 5.0 1.0 75.1ENE1011.9- 24.2 26.2 19.7---
2023-05-30 12:40 pm NW 4.0 5.0----1011.9- 24.2 26.2 19.6---
2023-05-30 12:30 pmNNW 4.0 5.0----1012.0- 24.2 26.2 19.6---
2023-05-30 12:20 pmNNW 3.0 5.0 1.0 75.0 E1012.1- 24.0 26.2 19.6---
2023-05-30 12:10 pmNNW 3.0 5.0 1.0-5.0 E1012.1- 24.0 26.2 19.8---
2023-05-30 12:00 pmNNW 3.0 5.0----1012.2 +0.0 24.0 26.1 19.8---
2023-05-30 11:50 amNNW 4.0 5.0 1.0 85.2ESE1012.2- 23.9 26.1 19.9---
2023-05-30 11:40 amNNW 4.0 6.0----1012.2- 23.9 26.1 20.0---
2023-05-30 11:30 am N 4.0 6.0----1012.2- 24.0 26.0 20.3---
2023-05-30 11:20 am N 5.0 6.0 0.9 85.0 E1012.2- 23.9- 20.1---
2023-05-30 11:10 am N 5.0 6.0 0.9-5.0 E1012.4- 23.9 26.0 20.1---
2023-05-30 11:00 am N 5.0 6.0----1012.3 +0.6 23.9 26.0 20.3---
2023-05-30 10:50 am N 5.0 6.0 1.0 75.0 E1012.4- 23.9 26.0 20.0---
2023-05-30 10:40 am N 5.0 6.0----1012.4- 24.0 26.0 20.2---
2023-05-30 10:30 am N 5.0 7.0----1012.4- 23.9 26.0 20.0---
2023-05-30 10:20 am N 5.0 7.0 1.0 84.9 E1012.5- 24.0 25.9 20.2---
2023-05-30 10:10 am N 5.0 7.0----1012.4- 24.0 25.9 20.1---
2023-05-30 10:00 amNNW 5.0 7.0----1012.4 +0.8 24.0 25.9 20.0---
2023-05-30 09:50 amNNW 5.0 7.0 1.0 84.9ENE1012.3- 24.1 25.9 20.1---
2023-05-30 09:40 amNNW 5.0 7.0----1012.3- 24.1 25.9 20.1---
2023-05-30 09:30 amNNW 5.0 7.0----1012.4- 24.0 25.9 20.1---
2023-05-30 09:20 amNNW 5.0 7.0 1.0 75.0 E1012.4- 24.0 25.9 20.0---
2023-05-30 09:10 am N 5.0 6.0 1.0-5.0 E1012.3- 24.1 25.9 20.1---
2023-05-30 09:00 am N 6.0 7.0----1012.2 +1.3 24.1 25.9 20.1---
2023-05-30 08:50 am N 5.0 7.0 1.1 85.1 E1012.2- 24.1 25.9 20.1---
2023-05-30 08:40 am N 5.0 7.0----1011.9- 24.1 25.9 20.1---
2023-05-30 08:30 am N 5.0 7.0----1011.9- 24.2 25.9 20.2---
2023-05-30 08:20 amNNW 5.0 7.0 1.0 74.8ENE1011.8- 24.3 25.9 19.7---
2023-05-30 08:10 amNNW 6.0 7.0 1.0-4.8ENE1011.7- 24.2 25.9 19.7---
2023-05-30 08:00 amNNW 6.0 7.0----1011.7 +1.2 24.2 25.9 20.0---
2023-05-30 07:50 amNNW 6.0 7.0 1.0 84.9 E1011.6- 24.1 26.0 19.7---
2023-05-30 07:40 amNNW 6.0 7.0----1011.6- 24.2- 19.9---
2023-05-30 07:30 amNNW 6.0 7.0----1011.7- 24.2 25.9 19.7---
2023-05-30 07:20 amNNW 6.0 7.0 1.1 85.1 E1011.7- 24.2 25.9 19.7---
2023-05-30 07:10 amNNW 6.0 8.0 1.1-5.1 E1011.8- 24.2 25.9 19.8---
2023-05-30 07:00 amNNW 6.0 8.0----1011.6 +1.4 24.2 25.9 19.7---
2023-05-30 06:50 amNNW 6.0 8.0 1.1 85.1ESE1011.5- 24.2 25.9 19.8---
2023-05-30 06:40 amNNW 6.0 7.0----1011.4- 24.1 25.9 19.7---
2023-05-30 06:30 amNNW 6.0 7.0----1011.3- 24.1 25.9 19.8---
2023-05-30 06:20 amNNW 6.0 7.0 1.1 85.2 E1011.1- 24.2 25.9 19.8---
2023-05-30 06:10 amNNW 6.0 7.0 1.1-5.2 E1011.0- 24.1 25.9 19.7---
2023-05-30 06:00 am NW 6.0 7.0----1010.9 +0.8 24.1 25.9 20.1---
2023-05-30 05:50 amNNW 6.0 8.0 1.1 85.4 E1010.8- 24.1 25.9 20.2---
2023-05-30 05:40 amNNW 6.0 8.0----1010.8- 24.1 25.9 20.1---
2023-05-30 05:30 amNNW 6.0 8.0----1010.6- 24.2 25.9 20.4---
2023-05-30 05:20 am NW 6.0 8.0 1.1 55.3 W1010.5- 24.2 25.9 20.4---
2023-05-30 05:10 am NW 6.0 7.0 1.1-5.3 W1010.5- 24.2 25.9 20.5---
2023-05-30 05:00 am NW 5.0 7.0----1010.5 +0.0 24.2 25.9 20.3---
2023-05-30 04:50 am NW 6.0 7.0 1.1 85.4ESE1010.4- 24.2 25.9 20.3---
2023-05-30 04:40 am NW 6.0 7.0----1010.3- 24.2 25.8 20.5---
2023-05-30 04:30 amWNW 5.0 7.0----1010.2- 24.2 25.9 20.6---
2023-05-30 04:20 am NW 5.0 7.0 1.2 85.5 E1010.2- 24.2- 20.7---
2023-05-30 04:10 am NW 5.0 7.0 1.2-5.5 E1010.3- 24.2- 20.7---
2023-05-30 04:00 amWNW 5.0 7.0----1010.2 -1.0 24.2 25.9 20.9---
2023-05-30 03:50 amWNW 5.0 7.0 1.2 85.8 E1010.3- 24.2 25.8 20.8---
2023-05-30 03:40 amWNW 5.0 7.0----1010.2- 24.2 25.8 20.8---
2023-05-30 03:30 amWNW 5.0 7.0----1010.1- 24.2 25.8 20.9---
2023-05-30 03:20 amWNW 5.0 7.0 1.2-5.6 E1010.1-- 25.9----
2023-05-30 03:10 amWNW 4.0 6.0 1.2-5.6 E1010.1- 24.2 25.9 21.0---
2023-05-30 03:00 am NW 3.0 5.0----1010.1 -1.6 24.2 25.9 21.3---
2023-05-30 02:50 amWNW 4.0 5.0 1.2 65.6 W1010.2- 24.1 25.9 21.2---
2023-05-30 02:40 amWNW 4.0 6.0----1010.2- 24.0 25.8 21.3---
2023-05-30 02:30 amWNW 4.0 5.0----1010.2- 24.0 25.9 21.5---
2023-05-30 02:20 amWNW 3.0 5.0 1.2 85.6ESE1010.3- 23.9 25.9 21.4---
2023-05-30 02:10 amWNW 4.0 5.0 1.2-5.6ESE1010.4- 23.9 25.8 21.5---
2023-05-30 02:00 amWNW 3.0 4.0----1010.5 -1.5 23.8- 21.5---
2023-05-30 01:50 amWNW 3.0 5.0 1.3 65.6WNW1010.5- 23.8 25.9 21.6---
2023-05-30 01:40 amWNW 3.0 5.0----1010.7- 23.8 25.8 21.7---
2023-05-30 01:30 amWNW 4.0 5.0----1010.8- 23.8 25.9 21.6---
2023-05-30 01:20 amWNW 4.0 5.0 1.3 65.8 W1010.9- 23.9 25.8 21.6---
2023-05-30 01:10 am W 4.0 5.0 1.3-5.8 W1011.0- 23.9 25.9 21.5---
2023-05-30 01:00 am W 3.0 5.0----1011.2 -0.4 23.8 25.8 21.2---
2023-05-30 12:50 amWNW 3.0 5.0 1.2 85.7 E1011.3- 23.8 25.8 21.3---
2023-05-30 12:40 am W 3.0 4.0----1011.4- 23.8 25.9 21.5---
2023-05-30 12:30 am W 3.0 4.0----1011.4- 23.8 25.8 21.5---
2023-05-30 12:20 am W 3.0 4.0 1.3 85.7 E1011.6- 23.9 25.8 21.6---
2023-05-30 12:10 am W 3.0 4.0----1011.6- 23.9 25.8 21.6---
2023-05-30 12:00 am W 3.0 5.0----1011.7 +0.5 23.9 25.8 21.6---
2023-05-29 11:50 pm W 3.0 4.0 1.2 85.7 E1011.8- 23.9 25.8 21.5---
2023-05-29 11:40 pmWSW 3.0 5.0----1011.9- 23.9 25.8 21.7---
2023-05-29 11:30 pm W 3.0 5.0----1012.0- 23.9 25.8 21.7---
2023-05-29 11:20 pm W 3.0 4.0 1.3 85.8 E1012.0- 23.9 25.8 21.7---
2023-05-29 11:10 pm W 2.0 4.0 1.3-5.8 E1012.0- 24.0 25.8 21.7---
2023-05-29 11:00 pmWSW 2.0 4.0----1012.0 +1.0 23.9 25.8 21.6---
2023-05-29 10:50 pmWSW 2.0 3.0 1.3 85.6 E1011.9- 23.9 25.8 21.6---
2023-05-29 10:40 pmWSW 1.0 2.0----1011.8- 23.8 25.8 21.5---
2023-05-29 10:30 pmWSW 1.0 2.0----1011.9- 23.8 25.8 21.5---
2023-05-29 10:20 pmWSW 2.0 3.0 1.1 85.7ENE1011.7- 23.9 25.8 21.7---
2023-05-29 10:10 pmWSW 2.0 3.0 1.1-5.7ENE1011.6- 23.8 25.7 21.5---
2023-05-29 10:00 pmWSW 2.0 3.0----1011.6 +0.8 23.8 25.7 21.6---
2023-05-29 09:50 pmWSW 2.0 4.0 1.2 85.7ENE1011.6- 23.9 25.8 21.7---
2023-05-29 09:40 pm W 1.0 3.0----1011.5- 23.8 25.8 21.5---
2023-05-29 09:30 pmWSW 1.0 2.0----1011.3- 23.8 25.8 21.5---
2023-05-29 09:20 pmSSW 2.0 3.0 1.3 85.9ENE1011.3- 23.8 25.8 21.5---
2023-05-29 09:10 pm SW 2.0 3.0 1.3-5.9ENE1011.1- 23.8 25.8 21.5---
2023-05-29 09:00 pm SW 2.0 3.0----1011.2 +0.7 23.8 25.8 21.6---
2023-05-29 08:50 pm SW 2.0 3.0 1.2 75.7 E1011.1- 23.7 25.8 21.4---
2023-05-29 08:40 pm SW 2.0 3.0----1011.1- 23.7 25.8 21.5---
2023-05-29 08:30 pmSSW 2.0 2.0----1011.0- 23.7 25.8 21.5---
2023-05-29 08:20 pm SW 1.0 3.0 1.3 75.7 E1011.0- 23.7 25.8 21.4---
2023-05-29 08:10 pmWSW 2.0 3.0 1.3-5.7 E1011.0- 23.7 25.8 21.5---
2023-05-29 08:00 pmSSW 2.0 3.0----1011.0 +0.0 23.6 25.8 21.4---
2023-05-29 07:50 pm SW 2.0 3.0 1.3 85.8 E1011.0- 23.6 25.8 21.5---
2023-05-29 07:40 pmSSW 2.0 3.0----1011.0- 23.6 25.8 21.4---
2023-05-29 07:20 pm S 2.0 3.0 1.3 85.6 E1011.0- 23.5 25.8 21.4---
2023-05-29 07:10 pm S 2.0 3.0 1.3-5.6 E1010.8- 23.4 25.8 21.3---
2023-05-29 07:00 pm S 2.0 3.0----1010.8 +0.0 23.5 25.8 21.7---
2023-05-29 06:50 pm S 2.0 3.0 1.3 85.7 E1010.6- 23.4- 21.6---
2023-05-29 06:40 pm S 2.0 3.0 1.3-5.7 E1010.6- 23.5 25.8 21.7---
2023-05-29 06:30 pm S 2.0 3.0----1010.7- 23.4 25.8 21.5---
2023-05-29 06:20 pm S 2.0 4.0 1.4 85.8 E1010.7- 23.3- 21.4---
2023-05-29 06:10 pm S 3.0 4.0 1.4-5.8 E1010.6- 23.3 25.8 21.5---
2023-05-29 06:00 pm S 3.0 4.0----1010.5 -0.6 23.3- 21.5---
2023-05-29 05:50 pm S 3.0 4.0 1.3 75.7 E1010.6- 23.3 25.8 21.4---
2023-05-29 05:40 pm S 2.0 4.0----1010.7- 23.3 25.8 21.1---
2023-05-29 05:30 pm S 2.0 4.0----1011.0- 23.1 25.8 20.9---
2023-05-29 05:20 pm S 2.0 3.0 1.3-5.8 E1011.0-- 25.8----
2023-05-29 05:10 pm S 2.0 3.0 1.3-5.8 E1011.0- 23.0 25.8 21.1---
2023-05-29 05:00 pm S 2.0 3.0----1011.0 -0.9 22.8 25.8 20.9---
2023-05-29 04:50 pm S 2.0 3.0 1.3 65.6 W1011.1- 22.8 25.8 21.0---
2023-05-29 04:40 pmSSW 1.0 3.0----1011.1- 22.8 25.8 20.9---
2023-05-29 04:30 pm S 2.0 3.0----1011.0- 22.6 25.8 20.7---
2023-05-29 04:20 pm S 2.0 3.0 1.3 65.6WNW1011.1- 22.5 25.8 20.6---
2023-05-29 04:10 pm S 3.0 4.0----1011.1- 22.3 25.8 20.8---
2023-05-29 04:00 pm SE 4.0 5.0----1011.0 -1.1 22.4- 21.2---
2023-05-29 03:50 pmSSE 3.0 4.0 1.4 86.0 E1011.1- 22.2 25.8 21.1---
2023-05-29 03:40 pm S 4.0 5.0----1011.2-- 25.8----
2023-05-29 03:30 pmSSE 4.0 5.0----1011.3- 22.1 25.8 21.2---
2023-05-29 03:20 pm SE 4.0 5.0 1.4 66.0 W1011.0- 22.0 25.8 21.1---
2023-05-29 03:10 pm SE 4.0 6.0 1.4-6.0 W1011.3- 21.9 25.8 20.9---
2023-05-29 03:00 pm SE 5.0 7.0----1011.1 -1.0 21.9 25.8 20.9---
2023-05-29 02:50 pm SE 5.0 6.0 1.5-5.9ENE1011.5- 21.9 25.8 20.8---
2023-05-29 02:40 pm--- 1.5 85.9ENE--------
2023-05-29 02:30 pmSSE 6.0 7.0----1011.8- 22.1 25.8 20.9---
2023-05-29 02:20 pmSSE 7.0 8.0 1.5 86.1 E1011.9- 22.5 25.8 21.3---
2023-05-29 02:10 pm S 6.0 8.0----1011.9- 22.6 25.8 21.2---
2023-05-29 02:00 pm S 6.0 7.0----1011.9 -0.3 22.7 25.8 21.5---
2023-05-29 01:50 pm S 5.0 6.0 1.4 85.9 NE1011.9- 22.8 25.9 21.7---

Detailed Wave Summary
for 41002 as of (2:10 pm EDT)
1810 GMT on 05/30/2023:

These wave data are displayed in rounded times.

     

Click on the graph icon in the table below to see a time series plot of the last five days of that observation.

5-day plot - Significant Wave Height Significant Wave Height (WVHT): 0.9 m
5-day plot - Swell Height Swell Height (SwH): 0.8 m
5-day plot - Swell Period Swell Period (SwP): 7.7 sec
5-day plot - Swell Direction Swell Direction (SwD):ESE
5-day plot - Wind Wave Height Wind Wave Height (WWH): 0.4 m
5-day plot - Wind Wave Period Wind Wave Period (WWP): 3.6 sec
5-day plot - Wind Wave Direction Wind Wave Direction (WWD): N
5-day plot - Wave Steepness Wave Steepness (STEEPNESS): AVERAGE
5-day plot - Average Wave Period Average Wave Period (APD): 5.2 sec
Previous observations
TIME
(EDT)
5-day plot - Wave Height
WVHT
m
5-day plot - Swell Height
SwH
m
5-day plot - Swell Period
SwP
sec
5-day plot - Swell Direction
SwD
 
5-day plot - Wind Wave Height
WWH
m
5-day plot - Wind Wave Period
WWP
sec
5-day plot - Wind Wave Direction
WWD
 
5-day plot - Wave Steepness
STEEPNESS
 
5-day plot - Average Wave Period
APD
sec
2023-05-30 01:40 pm 0.9 0.8 7.7 E 0.4 3.7- AVERAGE 5.2
2023-05-30 01:10 pm 0.9 0.8 7.1 E 0.4 4.0 NNW AVERAGE 5.2
2023-05-30 12:40 pm 1.0 0.9 7.1ENE 0.4 3.8 NNW AVERAGE 5.1
2023-05-30 12:10 pm 1.0 0.9 6.7 E 0.4 3.7 N AVERAGE 5.0
2023-05-30 11:40 am 1.0 0.9 8.3ESE 0.4 4.0 NNW SWELL 5.2
2023-05-30 11:10 am 0.9 0.8 7.7 E 0.5 4.2 NNW AVERAGE 5.0
2023-05-30 10:40 am 1.0 0.8 7.1 E 0.5 4.0 NNW AVERAGE 5.0
2023-05-30 10:10 am 1.0 0.8 7.7 E 0.6 4.3 NNW AVERAGE 4.9
2023-05-30 09:40 am 1.0 0.8 7.7ENE 0.6 4.8 WNW AVERAGE 4.9
2023-05-30 09:10 am 1.0 0.9 7.1 E 0.6 3.8 NNW AVERAGE 5.0
2023-05-30 08:40 am 1.1 0.8 7.7 E 0.6 5.0 NNW AVERAGE 5.1
2023-05-30 08:10 am 1.0 0.7 7.1ENE 0.7 5.3 W AVERAGE 4.8
2023-05-30 07:40 am 1.0 0.7 8.3 E 0.7 5.3 W SWELL 4.9
2023-05-30 07:10 am 1.1 0.8 7.7 E 0.8 5.3 WNW AVERAGE 5.1
2023-05-30 06:40 am 1.1 0.8 8.3ESE 0.7 5.3 WNW SWELL 5.1
2023-05-30 06:10 am 1.1 0.8 7.7 E 0.6 3.1 WNW AVERAGE 5.2
2023-05-30 05:40 am 1.1 0.9 8.3 E 0.7 5.3 WNW AVERAGE 5.4
2023-05-30 05:10 am 1.1 0.9 8.3ESE 0.7 5.3 WVERY_STEEP 5.3
2023-05-30 04:40 am 1.1 0.9 7.7ESE 0.7 5.3 WNW AVERAGE 5.4
2023-05-30 04:10 am 1.2 1.0 7.7 E 0.6 4.3 WNW AVERAGE 5.5
2023-05-30 03:40 am 1.2 1.1 8.3 E 0.5 4.5 WNW AVERAGE 5.8
2023-05-30 03:10 am 1.2 1.2 7.7 E 0.4 3.8 NW AVERAGE 5.6
2023-05-30 02:40 am 1.2 1.1 5.6 W 0.3 3.8 WNW STEEP 5.6
2023-05-30 02:10 am 1.2 1.2 7.7ESE 0.3 3.8 WNW AVERAGE 5.6
2023-05-30 01:40 am 1.3 1.2 5.6WNW 0.3 3.6 WNWVERY_STEEP 5.6
2023-05-30 01:10 am 1.3 1.2 5.9 W 0.3 3.3 W STEEP 5.8
2023-05-30 12:40 am 1.2 1.1 8.3 E 0.3 3.7 WNW AVERAGE 5.7
2023-05-30 12:10 am 1.3 1.2 7.7 E 0.3 3.2 WNW AVERAGE 5.7
2023-05-29 11:40 pm 1.2 1.2 7.7 E 0.3 4.0 WNW AVERAGE 5.7
2023-05-29 11:10 pm 1.3 1.2 8.3 E 0.3 3.8 WNW AVERAGE 5.8
2023-05-29 10:40 pm 1.3 1.2 7.7 E 0.4 3.7 W AVERAGE 5.6
2023-05-29 10:10 pm 1.1 1.1 7.7ENE 0.3 4.0 W AVERAGE 5.7
2023-05-29 09:40 pm 1.2 1.2 8.3ENE 0.3 3.4 SW AVERAGE 5.7
2023-05-29 09:10 pm 1.3 1.2 8.3ENE 0.3 3.8 W AVERAGE 5.9
2023-05-29 08:40 pm 1.2 1.2 7.1 E 0.3 4.0 W AVERAGE 5.7
2023-05-29 08:10 pm 1.3 1.2 7.1 E 0.3 3.7 WNW AVERAGE 5.7
2023-05-29 07:40 pm 1.3 1.2 7.7 E 0.3 3.8 W AVERAGE 5.8
2023-05-29 07:10 pm 1.3 1.2 8.3 E 0.3 3.6 WSW AVERAGE 5.6
2023-05-29 06:40 pm 1.3 1.2 7.7 E 0.3 3.8 W AVERAGE 5.7
2023-05-29 06:10 pm 1.4 1.3 8.3 E 0.4 3.7 WSW AVERAGE 5.8
2023-05-29 05:40 pm 1.3 1.2 6.7 E 0.4 3.6 WSW STEEP 5.7
2023-05-29 05:10 pm 1.3 1.3 8.3 E 0.3 3.8 W AVERAGE 5.8
2023-05-29 04:40 pm 1.3 1.3 5.6 W 0.4 3.7 WVERY_STEEP 5.6
2023-05-29 04:10 pm 1.3 1.3 5.9WNW 0.4 3.8 W STEEP 5.6
2023-05-29 03:40 pm 1.4 1.3 8.3 E 0.4 3.8 WNW AVERAGE 6.0
2023-05-29 03:10 pm 1.4 1.4 5.9 W 0.3 3.7 WSWVERY_STEEP 6.0
2023-05-29 02:40 pm 1.5 1.3 8.3ENE 0.7 3.6 SW AVERAGE 5.9
2023-05-29 02:10 pm 1.5 1.4 8.3 E 0.7 4.2 W AVERAGE 6.1

Plot of wave energy versus frequency (and period)